Location: Ferma
(41.9500°N, 44.5167°E)
Time: 20:24:52
(UTC+00:00)

FENGYUN 1C DEB - Pass Details

Date: 17 August 2022
Orbit: 606 x 930 km, 99.7° (Epoch: 01 October)

Event Time Altitude Azimuth Distance (km) Brightness Sun altitude
Exits shadow 19:39:10 10° 253° (WSW) 2,381 ? -31.3°
Reaches altitude 10° 19:39:25 10° 255° (WSW) 2,357 ? -31.3°
Maximum altitude 19:40:57 11° 273° (W) 2,305 ? -31.5°
Drops below altitude 10° 19:42:31 10° 290° (WNW) 2,425 ? -31.6°
Sets 19:47:02 0° 324° (NW) 3,450 ? -31.9°
